Simultaneous Nadir Overpasses (SNOs) Predictions

Prediction of SNOs between AQUA and METOP-A Satellite Orbit:

Table of predicted SNOs for the next 14.0 days since TLE Epoch: 10/12/2018
Index Date (AQUA) Time (AQUA) Lat,Lon (AQUA) SZA (AQUA ) Date (METOP-A) Time (METOP-A) Lat,Lon (METOP-A) SZA (METOP-A ) Distance(km) Time Diff (sec)
1 10/14/2018 12:44:10 -74.13, 162.54 97.70 10/14/2018 12:43:02 -74.07, 160.33 97.71 67.65 68
2 10/14/2018 13:33:47 74.63, -31.00 82.83 10/14/2018 13:33:31 74.61, -30.96 82.82 2.18 16
3 10/14/2018 14:23:14 -74.69, 136.48 97.09 10/14/2018 14:24:11 -74.68, 136.54 97.11 2.60 57
4 10/17/2018 08:18:26 -74.19,-131.15 96.60 10/17/2018 08:17:17 -74.12,-133.13 96.63 60.70 69
5 10/17/2018 09:08:02 74.64, 35.41 83.88 10/17/2018 09:07:47 74.61, 35.45 83.86 3.34 15
6 10/17/2018 09:57:29 -74.70,-157.09 96.05 10/17/2018 09:58:27 -74.68,-157.04 96.07 2.38 58
7 10/20/2018 03:52:40 -74.20, -64.74 95.58 10/20/2018 03:51:31 -74.17, -66.60 95.56 56.66 69
8 10/20/2018 04:42:15 74.61, 101.92 84.87 10/20/2018 04:42:02 74.61, 101.85 84.87 2.15 13
9 10/20/2018 05:31:43 -74.71, -90.68 95.02 10/20/2018 05:32:42 -74.68, -90.63 95.05 3.25 59
10 10/22/2018 23:26:56 -74.27, 1.54 94.51 10/22/2018 23:25:46 -74.22, -0.08 94.52 49.18 70
11 10/23/2018 00:16:30 74.63, 168.30 85.89 10/23/2018 00:16:18 74.61, 168.25 85.87 3.28 12
12 10/23/2018 01:05:57 -74.67, -24.16 94.06 10/23/2018 01:06:58 -74.68, -24.23 94.06 2.16 61
13 10/25/2018 19:01:11 -74.29, 67.92 93.50 10/25/2018 19:00:01 -74.26, 66.44 93.50 44.65 70
14 10/25/2018 19:50:45 74.66,-125.34 86.90 10/25/2018 19:50:33 74.65,-125.23 86.88 3.67 12
15 10/25/2018 20:40:12 -74.70, 42.22 93.06 10/25/2018 20:41:14 -74.68, 42.17 93.08 2.87 62




NCC Satellite Simultaneous Nadir Overpasses (SNOs) Prediction Service
